Location: Zapote
(9.9191°N, 84.0597°W)
Time: 16:36:10
(UTC-06:00)

Transit 2A - Pass Details

Date: 05 March 2021
Orbit: 602 x 957 km, 66.7° (Epoch: 15 April)

Event Time Altitude Azimuth Distance (km) Brightness Sun altitude
Rises 04:43:10 0° 314° (NW) 2,879 - -16.9°
Reaches altitude 10° 04:45:52 10° 297° (WNW) 2,008 - -16.2°
Maximum altitude 04:49:08 20° 250° (WSW) 1,519 - -15.4°
Exits shadow 04:49:42 19° 240° (WSW) 1,546 7.1 -15.2°
Drops below altitude 10° 04:52:35 10° 204° (SSW) 2,131 8.1 -14.5°
Sets 04:55:34 0° 187° (S) 3,116 9.1 -13.8°
